Volver al catálogo

ECHO 1 DEB

METAL OBJ

ActivoLEO
NORAD 51·DEBRIS·🇺🇸 United States

Lanzado Aug 12, 1960 desde Cape Canaveral Space Force Station

Loading…

Próximos Pases (próximas 24 horas)

TLE

ActualizadoSource: Space-Track

Época: Sep 14, 2026, 08:35 UTC

1 00051U 60009C   26257.35776023 -.00000024  00000-0  60208-3 0  9992
2 00051  47.2110 133.4284 0108647 101.1935 260.1089 12.18385292942040

Sigue ECHO 1 DEB en tiempo real con AllMySat

Download on the App Store